Change the Weather History Date:

Sunday, June 3, 2012

  Actual Average Record
Temperature  
Mean Temperature 84 °F -  
Max Temperature 99 °F 85 °F 102 °F (1998)
Min Temperature 68 °F 63 °F 53 °F (1954)
Cooling Degree Days 18    
Growing Degree Days 34 (Base 50)    
Moisture  
Dew Point 65 °F    
Average Humidity 60    
Maximum Humidity 90    
Minimum Humidity 28    
Precipitation  
Precipitation 0.94 in - - ()
Sea Level Pressure  
Sea Level Pressure 29.79 in    
Wind  
Wind Speed 12 mph (SSE)    
Max Wind Speed 23 mph    
Max Gust Speed 34 mph    
Visibility 9 miles    
Events Rain , Thunderstorm    
Averages and records for this station are not official NWS values.
T = Trace of Precipitation, MM = Missing Value Source: NWS Daily Summary

Daily Weather History Graph

Daily Weather History Graph

Search for Another Location

Airport or City:

Trip Planner

Search our weather history database for the weather conditions in past years. The results will help you decide how hot, cold, wet, or windy it might be!

Date:

Astronomy

Jun. 03, 2012 Rise Set
Actual Time 6:21 AM CDT 8:42 PM CDT
Civil Twilight 5:52 AM CDT 9:11 PM CDT
Nautical Twilight 5:16 AM CDT 9:47 PM CDT
Astronomical Twilight 4:37 AM CDT 10:26 PM CDT
Moon 8:10 PM CDT (6/3) 5:29 AM CDT (6/3)
Length of Visible Light 15h 19m
Length of Day
14h 21m
Waxing Gibbous, 99% of the Moon is Illuminated
Jun 3
Waxing Gibbous
Jun 4
Full
Jun 11
Last Quarter
Jun 19
New
Jun 26
First Quarter

Hourly Weather History & Observations

Time (CDT) Temp. Heat Index Dew Point Humidity Pressure Visibility Wind Dir Wind Speed Gust Speed Precip Events Conditions
12:53 AM 81.0 °F 82.2 °F 63.0 °F 54% 29.77 in 10.0 mi SSE 12.7 mph - N/A   Clear
1:53 AM 79.0 °F - 63.0 °F 58% 29.77 in 10.0 mi South 8.1 mph - N/A   Clear
2:16 AM 78.8 °F - 62.6 °F 57% 29.88 in 6.0 mi WNW 13.8 mph 24.2 mph 0.05 in Thunderstorm Unknown
2:22 AM 75.2 °F - 64.4 °F 69% 29.92 in 1.5 mi NW 20.7 mph 32.2 mph 0.24 in Rain , Thunderstorm Heavy Thunderstorms and Rain
2:28 AM 69.8 °F - 64.4 °F 83% 29.93 in 0.5 mi NNW 23.0 mph 34.5 mph 0.57 in Rain , Thunderstorm Heavy Thunderstorms and Rain
2:36 AM 69.8 °F - 62.6 °F 78% 29.91 in 1.0 mi NW 12.7 mph 34.5 mph 0.82 in Rain , Thunderstorm Heavy Thunderstorms and Rain
2:42 AM 71.6 °F - 62.6 °F 73% 29.91 in 3.0 mi NW 13.8 mph 24.2 mph 0.86 in Rain , Thunderstorm Heavy Thunderstorms and Rain
2:53 AM 70.0 °F - 63.0 °F 78% 29.85 in 5.0 mi North 13.8 mph 19.6 mph 0.91 in Rain , Thunderstorm Heavy Thunderstorms and Rain
3:45 AM 71.6 °F - 64.4 °F 78% 29.86 in 10.0 mi ENE 8.1 mph - 0.03 in   Scattered Clouds
3:53 AM 69.1 °F - 66.0 °F 90% 29.80 in 10.0 mi East 8.1 mph - 0.03 in Rain , Thunderstorm Light Rain
4:44 AM 69.8 °F - 64.4 °F 83% 29.84 in 10.0 mi ENE 6.9 mph - 0.00 in   Clear
4:53 AM 68.0 °F - 64.0 °F 87% 29.78 in 10.0 mi ENE 5.8 mph - 0.00 in   Clear
5:53 AM 69.1 °F - 64.0 °F 84% 29.79 in 10.0 mi SSE 4.6 mph - N/A   Clear
6:53 AM 70.0 °F - 63.0 °F 78% 29.77 in 10.0 mi South 8.1 mph - N/A   Clear
7:53 AM 73.9 °F - 63.0 °F 68% 29.74 in 10.0 mi SE 17.3 mph - N/A   Clear
8:53 AM 78.1 °F - 66.0 °F 66% 29.80 in 10.0 mi South 6.9 mph - N/A   Clear
9:53 AM 82.0 °F 84.5 °F 66.9 °F 60% 29.81 in 10.0 mi South 8.1 mph - N/A   Clear
10:53 AM 84.0 °F 87.8 °F 69.1 °F 61% 29.81 in 10.0 mi South 8.1 mph - N/A   Clear
11:53 AM 87.1 °F 90.6 °F 68.0 °F 53% 29.81 in 10.0 mi SSE 8.1 mph - N/A   Clear
12:53 PM 89.1 °F 92.1 °F 66.9 °F 48% 29.80 in 10.0 mi South 8.1 mph - N/A   Clear
1:53 PM 93.0 °F 96.4 °F 66.9 °F 42% 29.78 in 10.0 mi SSE 8.1 mph 21.9 mph N/A   Clear
2:53 PM 96.1 °F 99.3 °F 66.0 °F 37% 29.76 in 10.0 mi SSE 15.0 mph 21.9 mph N/A   Clear
3:53 PM 97.0 °F 99.3 °F 64.0 °F 34% 29.74 in 10.0 mi SSE 16.1 mph 20.7 mph N/A   Clear
4:53 PM 99.0 °F 101.7 °F 64.0 °F 32% 29.72 in 10.0 mi South 13.8 mph 23.0 mph N/A   Partly Cloudy
5:53 PM 99.0 °F 99.5 °F 60.1 °F 28% 29.70 in 10.0 mi South 15.0 mph 21.9 mph N/A   Clear
6:53 PM 96.1 °F 97.3 °F 63.0 °F 33% 29.68 in 10.0 mi SSE 13.8 mph 24.2 mph N/A   Clear
7:53 PM 93.0 °F 95.9 °F 66.0 °F 41% 29.70 in 10.0 mi SSE 11.5 mph 24.2 mph N/A   Clear
8:53 PM 89.1 °F 92.9 °F 68.0 °F 50% 29.72 in 10.0 mi SSE 9.2 mph - N/A   Clear
9:53 PM 86.0 °F 89.4 °F 68.0 °F 55% 29.74 in 10.0 mi SSE 8.1 mph - N/A   Clear
10:53 PM 84.9 °F 87.6 °F 66.9 °F 55% 29.77 in 10.0 mi South 10.4 mph - N/A   Clear
11:53 PM 82.0 °F 84.5 °F 66.9 °F 60% 29.75 in 10.0 mi South 10.4 mph - N/A   Clear